DECAYED

CZ-6A DEB, 54572 (Decayed)

Orbit data source: Space-Track

CZ-6A DEB, 54572 was space debris in SSO originally from a launch on Fri, 11 Nov 2022 UTC launched from the Taiyaun Space Center, China (TSC). Debris objects in space refer to the collection of defunct objects orbiting the Earth. Examples of debris include non-operational satellites, rocket bodies, and fragments generated from explosions, collisions, or faulty payload assembly.

Not visible in the next 10 days
Identifier
54572, 2022-151LY
Orbit
Decayed
Country
Flag of CNCN / PRC
Related business
Manufacturer
SAST
Mission
Decayed spacecraft
Bus & Motor
Unknown
Mass
Unknown
Launch date (UTC)
2022-11-11 (3 years ago)
Launch vehicle
Unknown
Launch site
Taiyaun Space Center, China (TSC)
Object type
Payload
Rocket body
Debris
Shape & HBR
Unknown shape, 0.1 m
Radar Cross Section
Small (<0.1 m²)

Expand to show TLE details & history
Last TLE update: 2 months ago

TLE from 2 months ago
0 CZ-6A DEB
1 54572U 22151LY  26065.20091252  .06542974  64020-1  20120-1 0  9990
2 54572  98.5906 155.2350 0016456 295.8048  64.1526 15.95966983176336
Epoch: 2026-03-06T04:49Z
TLE epoch observation values (Epoch: 2026-03-06T04:49:18.841Z)
Latitude
-0.00006°
Longitude
-81.03381°
Altitude
284.009 km
Speed
7.74 km/s
True Right ascension
10h 20m 56s
True Declination
0° 00' 00"
Sunlit
Object was in full shadow at epoch
Visualization orbit readout
Latitude
Unknown
Longitude
Unknown
Altitude
Unknown
Speed
Unknown
Apparent Right ascension
Unknown
Apparent Declination
Unknown
Sunlit
N/A
Visualization observer readout
Local Sidereal Time
23:38:17
Azimuth
Unknown
Elevation
Unknown
Doppler factor
Unknown
Orbital elements
Apogee altitude
293.504 km
Perigee altitude
271.582 km
Semi-major axis
6,660.68 km
Eccentricity
0.00165
Inclination
98.5906°
RAAN
155.235°
Arg. of periapsis
295.8048°
True anomaly
64.32246°
Mean anomaly
64.1526°
Eccentric anomaly
64.23751°
Mean motion
3.99269 °/min
Orbital period
90.16 mins
BSTAR
0.02012
Loading maneuver chart data...
Computing Atmospheric mass density...
Loading historical data...
Loading historical data...
Loading historical data...
Loading historical data...
Loading historical data...
Loading historical data...
Loading historical data...

Documentation

Showing up to 5 results
|